TimeCDT,TemperatureF,Dew PointF,Humidity,Sea Level PressureIn,VisibilityMPH,Wind Direction,Wind SpeedMPH,Gust SpeedMPH,PrecipitationIn,Events,Conditions,WindDirDegrees,DateUTC
12:15 AM,71.6,64.4,78,29.89,10.0,East,5.8,-,N/A,,Scattered Clouds,80,2013-06-12 05:15:00
12:35 AM,71.6,64.4,78,29.89,10.0,ENE,5.8,-,N/A,,Mostly Cloudy,70,2013-06-12 05:35:00
12:55 AM,71.6,64.4,78,29.92,10.0,Calm,Calm,-,N/A,,Mostly Cloudy,0,2013-06-12 05:55:00
1:15 AM,69.8,64.4,83,29.91,10.0,Calm,Calm,-,N/A,,Overcast,0,2013-06-12 06:15:00
1:35 AM,71.6,64.4,78,29.88,10.0,East,9.2,-,N/A,,Mostly Cloudy,90,2013-06-12 06:35:00
1:55 AM,71.6,62.6,73,29.84,10.0,East,9.2,-,N/A,Rain,Light Rain,80,2013-06-12 06:55:00
2:15 AM,73.4,62.6,69,29.88,10.0,NE,5.8,-,N/A,,Mostly Cloudy,40,2013-06-12 07:15:00
2:35 AM,71.6,62.6,73,29.87,10.0,ENE,6.9,-,N/A,,Scattered Clouds,70,2013-06-12 07:35:00
2:55 AM,71.6,62.6,73,29.88,10.0,East,3.5,-,N/A,,Clear,90,2013-06-12 07:55:00
3:15 AM,69.8,62.6,78,29.87,10.0,East,9.2,-,N/A,,Clear,80,2013-06-12 08:15:00
3:35 AM,69.8,62.6,78,29.86,10.0,East,6.9,-,N/A,,Clear,80,2013-06-12 08:35:00
3:55 AM,69.8,62.6,78,29.87,10.0,ENE,6.9,-,N/A,,Clear,70,2013-06-12 08:55:00
4:15 AM,69.8,62.6,78,29.86,10.0,NE,8.1,-,N/A,,Clear,50,2013-06-12 09:15:00
4:35 AM,69.8,62.6,78,29.87,10.0,ENE,8.1,-,N/A,,Clear,70,2013-06-12 09:35:00
4:55 AM,69.8,62.6,78,29.88,10.0,ENE,6.9,-,N/A,,Clear,70,2013-06-12 09:55:00
5:15 AM,69.8,62.6,78,29.89,10.0,ESE,5.8,-,N/A,,Mostly Cloudy,110,2013-06-12 10:15:00
5:35 AM,69.8,62.6,78,29.91,10.0,SE,3.5,-,N/A,,Overcast,140,2013-06-12 10:35:00
5:55 AM,69.8,62.6,78,29.92,10.0,Calm,Calm,-,N/A,,Overcast,0,2013-06-12 10:55:00
6:15 AM,69.8,62.6,78,29.95,10.0,Calm,Calm,-,N/A,,Scattered Clouds,0,2013-06-12 11:15:00
6:35 AM,69.8,62.6,78,29.95,10.0,Calm,Calm,-,N/A,,Mostly Cloudy,0,2013-06-12 11:35:00
6:55 AM,69.8,62.6,78,29.94,10.0,East,4.6,-,N/A,,Scattered Clouds,90,2013-06-12 11:55:00
7:15 AM,69.8,62.6,78,29.92,10.0,SE,5.8,-,N/A,,Scattered Clouds,130,2013-06-12 12:15:00
7:35 AM,69.8,62.6,78,29.92,10.0,ESE,5.8,-,N/A,,Clear,120,2013-06-12 12:35:00
7:55 AM,69.8,62.6,78,29.95,10.0,Calm,Calm,-,N/A,,Scattered Clouds,0,2013-06-12 12:55:00
8:15 AM,69.8,62.6,78,29.88,7.0,NE,9.2,-,0.01,Rain,Rain,50,2013-06-12 13:15:00
8:35 AM,69.8,62.6,78,29.79,10.0,ESE,12.7,23.0,0.02,Rain,Light Rain,110,2013-06-12 13:35:00
8:55 AM,71.6,62.6,73,29.77,10.0,SE,11.5,-,0.02,,Clear,130,2013-06-12 13:55:00
9:15 AM,71.6,62.6,73,29.78,10.0,SE,12.7,-,N/A,,Clear,140,2013-06-12 14:15:00
9:35 AM,73.4,62.6,69,29.75,10.0,East,11.5,16.1,N/A,,Clear,100,2013-06-12 14:35:00
9:55 AM,75.2,64.4,69,29.73,10.0,ESE,12.7,23.0,N/A,,Clear,110,2013-06-12 14:55:00
10:15 AM,77.0,64.4,65,29.74,10.0,SE,15.0,21.9,N/A,,Clear,130,2013-06-12 15:15:00
10:35 AM,78.8,62.6,57,29.75,10.0,ESE,12.7,-,N/A,,Clear,110,2013-06-12 15:35:00
10:55 AM,78.8,62.6,57,29.77,10.0,ESE,8.1,-,N/A,,Clear,110,2013-06-12 15:55:00
11:15 AM,78.8,62.6,57,29.79,10.0,SSE,4.6,-,N/A,,Clear,160,2013-06-12 16:15:00
11:35 AM,80.6,64.4,58,29.83,10.0,SW,8.1,-,N/A,,Clear,220,2013-06-12 16:35:00
11:55 AM,80.6,64.4,58,29.83,10.0,South,6.9,-,N/A,,Mostly Cloudy,170,2013-06-12 16:55:00
12:15 PM,80.6,64.4,58,29.82,10.0,South,4.6,-,N/A,,Overcast,180,2013-06-12 17:15:00
12:35 PM,80.6,64.4,58,29.82,10.0,South,3.5,-,N/A,,Overcast,190,2013-06-12 17:35:00
12:55 PM,80.6,64.4,58,29.80,10.0,Calm,Calm,-,N/A,,Mostly Cloudy,0,2013-06-12 17:55:00
1:15 PM,82.4,64.4,54,29.80,10.0,Calm,Calm,-,N/A,,Scattered Clouds,0,2013-06-12 18:15:00
1:35 PM,82.4,66.2,58,29.78,10.0,ENE,6.9,-,N/A,,Clear,60,2013-06-12 18:35:00
1:55 PM,80.6,66.2,61,29.77,10.0,NE,9.2,-,N/A,,Clear,50,2013-06-12 18:55:00
2:15 PM,78.8,68.0,69,29.77,10.0,NE,9.2,-,N/A,,Scattered Clouds,40,2013-06-12 19:15:00
2:35 PM,78.8,68.0,69,29.77,10.0,NE,10.4,-,N/A,,Overcast,50,2013-06-12 19:35:00
2:55 PM,78.8,68.0,69,29.77,10.0,ENE,9.2,-,N/A,,Overcast,60,2013-06-12 19:55:00
3:15 PM,80.6,68.0,65,29.74,10.0,East,15.0,18.4,N/A,,Mostly Cloudy,80,2013-06-12 20:15:00
3:35 PM,80.6,68.0,65,29.72,10.0,East,12.7,-,N/A,,Scattered Clouds,90,2013-06-12 20:35:00
3:55 PM,82.4,68.0,62,29.68,10.0,East,17.3,20.7,N/A,,Scattered Clouds,90,2013-06-12 20:55:00
4:15 PM,80.6,68.0,65,29.66,10.0,East,11.5,18.4,N/A,,Scattered Clouds,100,2013-06-12 21:15:00
4:35 PM,78.8,68.0,69,29.69,10.0,East,5.8,-,N/A,,Mostly Cloudy,90,2013-06-12 21:35:00
4:55 PM,78.8,68.0,69,29.68,10.0,East,5.8,-,N/A,,Overcast,90,2013-06-12 21:55:00
5:15 PM,78.8,68.0,69,29.68,10.0,East,6.9,-,N/A,,Overcast,80,2013-06-12 22:15:00
5:35 PM,77.0,68.0,74,29.64,10.0,ENE,20.7,26.5,N/A,Rain,Light Rain,60,2013-06-12 22:35:00
5:55 PM,73.4,68.0,83,29.68,7.0,NW,4.6,-,N/A,,Light Drizzle,320,2013-06-12 22:55:00
6:15 PM,73.4,68.0,83,29.66,7.0,Calm,Calm,-,0.01,Rain,Light Rain,0,2013-06-12 23:15:00
6:35 PM,73.4,69.8,88,29.65,7.0,North,3.5,-,0.01,,Scattered Clouds,360,2013-06-12 23:35:00
6:55 PM,73.4,69.8,88,29.68,5.0,North,9.2,-,0.01,,Mostly Cloudy,360,2013-06-12 23:55:00
7:15 PM,71.6,68.0,88,29.67,3.0,NNE,11.5,-,N/A,,Overcast,30,2013-06-13 00:15:00
7:35 PM,71.6,68.0,88,29.69,5.0,NNE,8.1,17.3,N/A,,Overcast,30,2013-06-13 00:35:00
7:55 PM,69.8,64.4,83,29.69,10.0,ENE,11.5,16.1,N/A,,Overcast,60,2013-06-13 00:55:00
8:15 PM,69.8,64.4,83,29.71,10.0,ENE,9.2,-,N/A,,Overcast,60,2013-06-13 01:15:00
8:35 PM,69.8,64.4,83,29.68,10.0,NE,16.1,19.6,N/A,Rain,Rain,50,2013-06-13 01:35:00
8:55 PM,68.0,64.4,88,29.70,10.0,NNE,13.8,24.2,0.02,Rain,Light Rain,30,2013-06-13 01:55:00
9:15 PM,66.2,62.6,88,29.72,10.0,NNE,16.1,25.3,N/A,Rain,Light Rain,30,2013-06-13 02:15:00
9:35 PM,66.2,62.6,88,29.71,5.0,East,10.4,17.3,0.20,Rain,Light Rain,80,2013-06-13 02:35:00
9:55 PM,66.2,62.6,88,29.70,10.0,East,8.1,-,0.20,,Overcast,90,2013-06-13 02:55:00
10:15 PM,66.2,62.6,88,29.72,10.0,NE,9.2,-,N/A,Rain,Light Rain,40,2013-06-13 03:15:00
10:35 PM,64.4,62.6,94,29.72,10.0,North,8.1,-,0.01,Rain,Light Rain,10,2013-06-13 03:35:00
10:55 PM,64.4,62.6,94,29.72,10.0,NNE,11.5,19.6,0.02,Rain,Light Rain,20,2013-06-13 03:55:00
11:15 PM,64.4,62.6,94,29.73,10.0,NNE,9.2,18.4,N/A,,Overcast,20,2013-06-13 04:15:00
11:35 PM,64.4,62.6,94,29.75,10.0,North,11.5,-,N/A,,Overcast,360,2013-06-13 04:35:00
11:55 PM,64.4,62.6,94,29.76,10.0,NNE,10.4,-,N/A,,Overcast,20,2013-06-13 04:55:00